TimeCDT,TemperatureF,Dew PointF,Humidity,Sea Level PressureIn,VisibilityMPH,Wind Direction,Wind SpeedMPH,Gust SpeedMPH,PrecipitationIn,Events,Conditions,WindDirDegrees,DateUTC
12:58 AM,58.8,49.5,71,29.96,10.0,West,2.3,-,N/A,,Partly Cloudy,270,2013-05-09 05:58:00
1:58 AM,59.7,50.2,71,29.96,10.0,West,8.1,-,N/A,,Mostly Cloudy,270,2013-05-09 06:58:00
2:48 AM,60.8,51.8,72,29.95,10.0,North,3.5,-,N/A,Rain,Light Rain,360,2013-05-09 07:48:00
2:58 AM,60.6,52.2,74,29.94,10.0,Variable,3.5,-,0.00,Rain,Light Rain,0,2013-05-09 07:58:00
3:04 AM,60.8,53.6,77,29.95,10.0,SW,6.9,-,N/A,,Scattered Clouds,220,2013-05-09 08:04:00
3:58 AM,58.8,52.2,79,29.95,10.0,WNW,5.8,-,0.00,,Scattered Clouds,300,2013-05-09 08:58:00
4:45 AM,59.0,53.6,82,29.95,10.0,West,8.1,-,N/A,Rain,Light Rain,270,2013-05-09 09:45:00
4:58 AM,58.3,53.8,85,29.94,10.0,West,4.6,-,0.00,,Light Drizzle,270,2013-05-09 09:58:00
4:59 AM,59.0,53.6,82,29.94,10.0,WNW,5.8,-,N/A,,Scattered Clouds,300,2013-05-09 09:59:00
5:29 AM,57.2,53.6,88,29.93,7.0,Calm,Calm,-,N/A,,Overcast,0,2013-05-09 10:29:00
5:39 AM,57.2,53.6,88,29.94,10.0,West,4.6,-,N/A,,Overcast,260,2013-05-09 10:39:00
5:45 AM,57.2,53.6,88,29.94,10.0,West,5.8,-,N/A,,Light Drizzle,280,2013-05-09 10:45:00
5:54 AM,57.2,53.6,88,29.95,10.0,West,6.9,-,N/A,,Overcast,260,2013-05-09 10:54:00
5:58 AM,57.7,53.6,86,29.95,10.0,West,8.1,-,0.00,,Overcast,260,2013-05-09 10:58:00
6:22 AM,57.2,53.6,88,29.94,10.0,NW,5.8,-,N/A,,Light Drizzle,310,2013-05-09 11:22:00
6:31 AM,57.2,53.6,88,29.95,10.0,West,4.6,-,N/A,,Mostly Cloudy,280,2013-05-09 11:31:00
6:36 AM,57.2,53.6,88,29.95,10.0,West,5.8,-,N/A,,Light Drizzle,280,2013-05-09 11:36:00
6:52 AM,57.2,55.4,94,29.95,10.0,WNW,5.8,-,N/A,,Scattered Clouds,290,2013-05-09 11:52:00
6:58 AM,57.2,55.4,94,29.96,10.0,NW,4.6,-,N/A,Rain,Light Rain Showers,310,2013-05-09 11:58:00
7:03 AM,57.2,55.4,94,29.95,10.0,NNW,3.5,-,N/A,Rain,Light Rain,330,2013-05-09 12:03:00
7:58 AM,57.2,55.4,94,29.97,7.0,West,4.6,-,N/A,Rain,Light Rain,280,2013-05-09 12:58:00
8:58 AM,57.2,55.4,94,29.97,4.0,North,3.5,-,N/A,Rain,Light Rain,10,2013-05-09 13:58:00
10:08 AM,57.2,55.4,94,29.95,7.0,Calm,Calm,-,N/A,,Overcast,0,2013-05-09 15:08:00
10:58 AM,59.0,57.2,94,29.97,10.0,ENE,2.3,-,N/A,,Overcast,70,2013-05-09 15:58:00
11:58 AM,59.0,57.2,94,29.97,10.0,NE,1.2,-,N/A,,Overcast,40,2013-05-09 16:58:00
12:58 PM,59.0,57.2,94,29.98,6.0,ENE,4.6,-,N/A,Rain,Light Rain,70,2013-05-09 17:58:00
1:58 PM,59.0,59.0,100,29.96,5.0,NE,5.8,-,N/A,Rain,Light Rain,40,2013-05-09 18:58:00
2:58 PM,57.2,57.2,100,29.96,5.0,Variable,5.8,-,N/A,Rain,Light Rain,0,2013-05-09 19:58:00
3:58 PM,57.2,55.4,94,29.94,5.0,NNE,5.8,-,N/A,Rain,Light Rain,30,2013-05-09 20:58:00
4:58 PM,55.4,55.4,100,29.94,6.0,NNE,6.9,-,N/A,Rain,Light Rain,30,2013-05-09 21:58:00
5:58 PM,55.4,53.6,94,29.94,7.0,NE,8.1,-,N/A,,Light Drizzle,50,2013-05-09 22:58:00
6:58 PM,53.6,53.6,100,29.94,4.0,Variable,4.6,-,N/A,,Light Drizzle,0,2013-05-09 23:58:00
7:58 PM,53.6,51.8,94,29.96,3.0,NE,6.9,-,N/A,Rain,Light Rain,50,2013-05-10 00:58:00
8:58 PM,51.8,51.8,100,29.97,7.0,Variable,6.9,-,N/A,Rain,Light Rain,0,2013-05-10 01:58:00
8:59 PM,51.8,51.8,100,29.95,8.0,NNE,6.9,-,N/A,Rain,Light Rain,30,2013-05-10 01:59:00
9:58 PM,51.8,51.8,100,29.98,7.0,NE,11.5,-,N/A,Rain,Light Rain,40,2013-05-10 02:58:00
10:58 PM,50.0,50.0,100,29.98,7.0,NE,13.8,16.1,N/A,Rain,Rain,40,2013-05-10 03:58:00
11:03 PM,50.0,50.0,100,29.96,6.0,NE,9.2,19.6,N/A,Rain,Rain,40,2013-05-10 04:03:00
11:13 PM,50.0,50.0,100,29.96,6.0,NNE,10.4,-,N/A,Rain,Rain,30,2013-05-10 04:13:00
11:18 PM,50.0,50.0,100,29.96,6.0,NE,10.4,-,N/A,Rain,Rain,50,2013-05-10 04:18:00
11:23 PM,50.0,48.2,94,29.96,7.0,ENE,12.7,20.7,N/A,Rain,Light Rain,60,2013-05-10 04:23:00
11:33 PM,48.2,48.2,100,29.96,9.0,ENE,8.1,20.7,N/A,Rain,Light Rain,60,2013-05-10 04:33:00
11:43 PM,48.2,48.2,100,29.96,9.0,NE,9.2,-,N/A,Rain,Light Rain,40,2013-05-10 04:43:00
11:48 PM,48.2,48.2,100,29.96,9.0,NE,9.2,17.3,N/A,Rain,Light Rain,40,2013-05-10 04:48:00
11:50 PM,48.2,48.2,100,29.96,9.0,NE,10.4,17.3,N/A,Rain,Light Rain,40,2013-05-10 04:50:00
11:58 PM,48.4,47.7,97,29.98,9.0,NE,13.8,19.6,0.10,Rain,Light Rain,50,2013-05-10 04:58:00